Flag for Norway Weather past 2 weeks in Askim, Norway

Now
61 °F

Sunny.


Feels Like: 61 °F
Forecast: 47 / 65 °F
Wind: 12 mph from South

Location: Rygge

Current Time: Aug 2, 2015 at 8:43:55 PM

Latest Report: Aug 2, 2015 at 7:50 PM


Visibility: 10 mi

Pressure: 30.01 "Hg

Humidity: 77%

Dew point: 54 °F

Location of AskimLocation

Historic Weather in Askim — Graph

°F

Askim temperature yesterday

Maximum temperature yesterday: 63 °F (at 12:20 PM)
Minimum temperature yesterday: 48 °F (at 2:20 AM)
Average temperature yesterday: 57 °F

Past Weeks' High & Low Weather Summary

 TemperatureHumidityPressure
High72 °F (Jul 20, 2:20 PM)100% (Jul 25, 3:50 AM)30.04 "Hg (Jul 25, 3:50 AM)
Low48 °F (Jul 25, 4:50 AM)35% (Jul 23, 6:50 PM)29.39 "Hg (Jul 26, 10:20 AM)
Average59 °F78%29.66 "Hg
* Reported Jul 18 7:50 PM — Aug 2 7:20 PM, Askim, Weather by CustomWeather, © 2015

Note: Actual official high and low records may vary slightly from our data, if they occured in-between our weather recording intervals... More about our weather records

Advertising

Askim weather history for previous 24 hours

 ConditionsComfort  
Time TempWeatherWind HumidityBarometerVisibility
7:20 PM
Sun, Aug 2
61 °FSunny.13 mph72%30.01 "Hg10 mi
6:50 PM63 °FSunny.13 mph64%30.01 "Hg10 mi
6:20 PM61 °FSunny.13 mph77%30.01 "Hg10 mi
5:50 PM63 °FScattered clouds.10 mph77%30.01 "HgN/A
5:20 PM61 °FScattered clouds.7 mph72%30.01 "HgN/A
4:50 PM61 °FScattered clouds.3 mph68%30.01 "HgN/A
4:20 PM54 °FScattered clouds.12 mph88%30.04 "HgN/A
3:50 PM52 °FRain. Partly sunny.12 mph88%30.04 "Hg6 mi
3:20 PM52 °FThundershowers. Scattered clouds.6 mph88%30.01 "HgN/A
2:50 PM57 °FHeavy rain. Partly sunny.21 mph72%30.04 "HgN/A
2:20 PM63 °FThundershowers. Passing clouds.17 mph64%30.01 "HgN/A
1:50 PM64 °FSunny.17 mph64%30.01 "Hg10 mi
1:20 PM63 °FPassing clouds.16 mph68%30.01 "HgN/A
12:50 PM63 °FPassing clouds.15 mph56%30.01 "HgN/A
12:20 PM63 °FSunny.15 mph59%30.01 "Hg10 mi
11:50 AM63 °FPassing clouds.15 mph59%29.98 "HgN/A
11:20 AM61 °FPassing clouds.12 mph68%29.98 "HgN/A
10:50 AM59 °FScattered clouds.13 mph72%29.98 "HgN/A
10:20 AM61 °FPassing clouds.13 mph72%29.98 "HgN/A
9:50 AM59 °FSunny.13 mph77%29.98 "Hg10 mi
9:20 AM59 °FPassing clouds.12 mph77%29.95 "HgN/A
8:56 AM57 °FSunny.9 mph82%29.95 "Hg10 mi
8:20 AM57 °FPassing clouds.8 mph82%29.95 "HgN/A
7:50 AM55 °FPassing clouds.8 mph88%29.95 "HgN/A
7:20 AM55 °FPassing clouds.5 mph88%29.95 "HgN/A
7:02 AM54 °FScattered clouds.3 mph88%29.95 "HgN/A
6:20 AM52 °FPartly sunny.3 mph94%29.95 "HgN/A
5:50 AM50 °FThunderstorms. Partly cloudy.6 mph94%29.95 "Hg5 mi
5:20 AM52 °FRain. Partly cloudy.8 mph88%29.95 "Hg5 mi
4:50 AM57 °FHeavy rain. Mostly cloudy.16 mph82%29.95 "Hg6 mi
4:20 AM57 °FMostly cloudy.12 mph77%29.95 "HgN/A
3:50 AM57 °FMostly cloudy.8 mph77%29.95 "HgN/A
3:20 AM57 °FMostly cloudy.10 mph77%29.95 "HgN/A
2:50 AM57 °FPartly cloudy.9 mph82%29.98 "HgN/A
2:20 AM57 °FPartly cloudy.9 mph82%29.98 "HgN/A
1:50 AM59 °FPassing clouds.10 mph77%29.98 "HgN/A
1:20 AM57 °FPassing clouds.9 mph82%29.98 "HgN/A
12:50 AM57 °FPassing clouds.10 mph82%29.98 "HgN/A
11:50 PM
Sat, Aug 1
59 °FClear.12 mph77%29.98 "Hg10 mi
11:20 PM59 °FClear.9 mph72%29.98 "Hg10 mi
10:50 PM59 °FClear.12 mph72%29.98 "Hg10 mi
10:20 PM57 °FSunny.9 mph77%29.98 "Hg10 mi
9:50 PM57 °FPassing clouds.9 mph77%29.98 "HgN/A
9:20 PM57 °FSunny.8 mph77%29.98 "Hg10 mi
8:50 PM59 °FSunny.10 mph72%29.98 "Hg10 mi
8:20 PM59 °FPassing clouds.12 mph77%29.98 "HgN/A
Weather by CustomWeather, © 2015

See weather overviewHow to use our weather pages